Location: Moscow
(30.9132°N, 94.8252°W)
Time: 08:23:36
(UTC+00:00)

SJ 16-02 - Pass Details

Date: 15 November 2025
Orbit: 585 x 594 km, 75.0° (Epoch: 13 December)

Event Time Altitude Azimuth Distance (km) Brightness Sun altitude
Rises 00:06:24 0° 168° (SSE) 2,816 4.8 -9.9°
Reaches altitude 10° 00:08:53 10° 155° (SSE) 1,920 3.8 -10.4°
Maximum altitude 00:12:25 26° 99° (E) 1,194 2.3 -11.1°
Enters shadow 00:15:10 14° 50° (NE) 1,675 3.0 -11.7°
